Year,Month,Day,Hour,Minute,Value (Times are PST for temperature in C)
2017,10,02,00,00,7.80
2017,10,02,00,01,7.80
2017,10,02,00,02,7.70
2017,10,02,00,03,7.70
2017,10,02,00,04,7.70
2017,10,02,00,05,7.70
2017,10,02,00,06,7.70
2017,10,02,00,07,7.70
2017,10,02,00,08,7.70
2017,10,02,00,09,7.70
2017,10,02,00,10,7.70
2017,10,02,00,11,7.70
2017,10,02,00,12,7.70
2017,10,02,00,13,7.70
2017,10,02,00,14,7.70
2017,10,02,00,15,7.70
2017,10,02,00,16,7.60
2017,10,02,00,17,7.60
2017,10,02,00,18,7.60
2017,10,02,00,19,7.60
2017,10,02,00,20,7.60
2017,10,02,00,21,7.60
2017,10,02,00,22,7.60
2017,10,02,00,23,7.60
2017,10,02,00,24,7.60
2017,10,02,00,25,7.60
2017,10,02,00,26,7.60
2017,10,02,00,27,7.60
2017,10,02,00,28,7.60
2017,10,02,00,29,7.60
2017,10,02,00,30,7.60
2017,10,02,00,31,7.60
2017,10,02,00,32,7.50
2017,10,02,00,33,7.50
2017,10,02,00,34,7.50
2017,10,02,00,35,7.40
2017,10,02,00,36,7.50
2017,10,02,00,37,7.40
2017,10,02,00,38,7.50
2017,10,02,00,39,7.50
2017,10,02,00,40,7.50
2017,10,02,00,41,7.50
2017,10,02,00,42,7.50
2017,10,02,00,43,7.40
2017,10,02,00,44,7.40
2017,10,02,00,45,7.40
2017,10,02,00,46,7.30
2017,10,02,00,47,7.30
2017,10,02,00,48,7.30
2017,10,02,00,49,7.30
2017,10,02,00,50,7.30
2017,10,02,00,51,7.20
2017,10,02,00,52,7.20
2017,10,02,00,53,7.20
2017,10,02,00,54,7.20
2017,10,02,00,55,7.20
2017,10,02,00,56,7.20
2017,10,02,00,57,7.20
2017,10,02,00,58,7.20
2017,10,02,00,59,7.20
2017,10,02,01,00,7.20
2017,10,02,01,01,7.20
2017,10,02,01,02,7.10
2017,10,02,01,03,7.10
2017,10,02,01,04,7.10
2017,10,02,01,05,7.10
2017,10,02,01,06,7.00
2017,10,02,01,07,7.00
2017,10,02,01,08,7.00
2017,10,02,01,09,7.00
2017,10,02,01,10,6.90
2017,10,02,01,11,6.90
2017,10,02,01,12,6.90
2017,10,02,01,13,6.90
2017,10,02,01,14,6.90
2017,10,02,01,15,6.90
2017,10,02,01,16,6.90
2017,10,02,01,17,6.90
2017,10,02,01,18,6.90
2017,10,02,01,19,6.90
2017,10,02,01,20,6.90
2017,10,02,01,21,6.90
2017,10,02,01,22,6.90
2017,10,02,01,23,6.90
2017,10,02,01,24,6.90
2017,10,02,01,25,6.90
2017,10,02,01,26,6.80
2017,10,02,01,27,6.90
2017,10,02,01,28,6.90
2017,10,02,01,29,6.90
2017,10,02,01,30,6.90
2017,10,02,01,31,6.90
2017,10,02,01,32,6.90
2017,10,02,01,33,6.90
2017,10,02,01,34,6.80
2017,10,02,01,35,6.80
2017,10,02,01,36,6.80
2017,10,02,01,37,6.80
2017,10,02,01,38,6.80
2017,10,02,01,39,6.80
2017,10,02,01,40,6.70
2017,10,02,01,41,6.70
2017,10,02,01,42,6.70
2017,10,02,01,43,6.70
2017,10,02,01,44,6.70
2017,10,02,01,45,6.70
2017,10,02,01,46,6.80
2017,10,02,01,47,6.80
2017,10,02,01,48,6.80
2017,10,02,01,49,6.80
2017,10,02,01,50,6.80
2017,10,02,01,51,6.80
2017,10,02,01,52,6.80
2017,10,02,01,53,6.80
2017,10,02,01,54,6.80
2017,10,02,01,55,6.80
2017,10,02,01,56,6.90
2017,10,02,01,57,6.90
2017,10,02,01,58,6.80
2017,10,02,01,59,6.80
2017,10,02,02,00,6.80
2017,10,02,02,01,6.80
2017,10,02,02,02,6.80
2017,10,02,02,03,6.80
2017,10,02,02,04,6.80
2017,10,02,02,05,6.80
2017,10,02,02,06,6.80
2017,10,02,02,07,6.80
2017,10,02,02,08,6.80
2017,10,02,02,09,6.80
2017,10,02,02,10,6.80
2017,10,02,02,11,6.80
2017,10,02,02,12,6.80
2017,10,02,02,13,6.70
2017,10,02,02,14,6.70
2017,10,02,02,15,6.60
2017,10,02,02,16,6.60
2017,10,02,02,17,6.50
2017,10,02,02,18,6.50
2017,10,02,02,19,6.40
2017,10,02,02,20,6.40
2017,10,02,02,21,6.40
2017,10,02,02,22,6.30
2017,10,02,02,23,6.30
2017,10,02,02,24,6.30
2017,10,02,02,25,6.30
2017,10,02,02,26,6.30
2017,10,02,02,27,6.30
2017,10,02,02,28,6.30
2017,10,02,02,29,6.30
2017,10,02,02,30,6.30
2017,10,02,02,31,6.40
2017,10,02,02,32,6.40
2017,10,02,02,33,6.40
2017,10,02,02,34,6.40
2017,10,02,02,35,6.40
2017,10,02,02,36,6.40
2017,10,02,02,37,6.40
2017,10,02,02,38,6.40
2017,10,02,02,39,6.40
2017,10,02,02,40,6.40
2017,10,02,02,41,6.50
2017,10,02,02,42,6.50
2017,10,02,02,43,6.50
2017,10,02,02,44,6.50
2017,10,02,02,45,6.50
2017,10,02,02,46,6.50
2017,10,02,02,47,6.40
2017,10,02,02,48,6.40
2017,10,02,02,49,6.40
2017,10,02,02,50,6.40
2017,10,02,02,51,6.40
2017,10,02,02,52,6.40
2017,10,02,02,53,6.40
2017,10,02,02,54,6.40
2017,10,02,02,55,6.30
2017,10,02,02,56,6.30
2017,10,02,02,57,6.30
2017,10,02,02,58,6.30
2017,10,02,02,59,6.30
2017,10,02,03,00,6.30
2017,10,02,03,01,6.30
2017,10,02,03,02,6.20
2017,10,02,03,03,6.20
2017,10,02,03,04,6.20
2017,10,02,03,05,6.20
2017,10,02,03,06,6.20
2017,10,02,03,07,6.20
2017,10,02,03,08,6.10
2017,10,02,03,09,6.10
2017,10,02,03,10,6.10
2017,10,02,03,11,6.10
2017,10,02,03,12,6.10
2017,10,02,03,13,6.10
2017,10,02,03,14,6.10
2017,10,02,03,15,6.10
2017,10,02,03,16,6.10
2017,10,02,03,17,6.10
2017,10,02,03,18,6.10
2017,10,02,03,19,6.10
2017,10,02,03,20,6.10
2017,10,02,03,21,6.20
2017,10,02,03,22,6.20
2017,10,02,03,23,6.10
2017,10,02,03,24,6.10
2017,10,02,03,25,6.10
2017,10,02,03,26,6.10
2017,10,02,03,27,6.10
2017,10,02,03,28,6.00
2017,10,02,03,29,6.00
2017,10,02,03,30,6.00
2017,10,02,03,31,5.90
2017,10,02,03,32,5.90
2017,10,02,03,33,5.90
2017,10,02,03,34,6.00
2017,10,02,03,35,6.00
2017,10,02,03,36,6.00
2017,10,02,03,37,6.10
2017,10,02,03,38,6.10
2017,10,02,03,39,6.10
2017,10,02,03,40,6.10
2017,10,02,03,41,6.20
2017,10,02,03,42,6.20
2017,10,02,03,43,6.20
2017,10,02,03,44,6.20
2017,10,02,03,45,6.20
2017,10,02,03,46,6.20
2017,10,02,03,47,6.20
2017,10,02,03,48,6.20
2017,10,02,03,49,6.20
2017,10,02,03,50,6.20
2017,10,02,03,51,6.20
2017,10,02,03,52,6.20
2017,10,02,03,53,6.20
2017,10,02,03,54,6.20
2017,10,02,03,55,6.20
2017,10,02,03,56,6.10
2017,10,02,03,57,6.10
2017,10,02,03,58,6.10
2017,10,02,03,59,6.10
2017,10,02,04,00,6.10
2017,10,02,04,01,6.10
2017,10,02,04,02,6.10
2017,10,02,04,03,6.00
2017,10,02,04,04,6.00
2017,10,02,04,05,6.00
2017,10,02,04,06,5.90
2017,10,02,04,07,5.90
2017,10,02,04,08,5.90
2017,10,02,04,09,5.90
2017,10,02,04,10,5.90
2017,10,02,04,11,5.90
2017,10,02,04,12,5.90
2017,10,02,04,13,5.90
2017,10,02,04,14,5.90
2017,10,02,04,15,5.90
2017,10,02,04,16,5.90
2017,10,02,04,17,5.90
2017,10,02,04,18,5.90
2017,10,02,04,19,5.90
2017,10,02,04,20,5.90
2017,10,02,04,21,5.90
2017,10,02,04,22,5.90
2017,10,02,04,23,5.90
2017,10,02,04,24,5.90
2017,10,02,04,25,5.90
2017,10,02,04,26,5.90
2017,10,02,04,27,5.90
2017,10,02,04,28,5.90
2017,10,02,04,29,5.90
2017,10,02,04,30,6.00
2017,10,02,04,31,6.00
2017,10,02,04,32,6.00
2017,10,02,04,33,6.00
2017,10,02,04,34,6.10
2017,10,02,04,35,6.10
2017,10,02,04,36,6.10
2017,10,02,04,37,6.10
2017,10,02,04,38,6.10
2017,10,02,04,39,6.10
2017,10,02,04,40,6.10
2017,10,02,04,41,6.10
2017,10,02,04,42,6.10
2017,10,02,04,43,6.20
2017,10,02,04,44,6.20
2017,10,02,04,45,6.30
2017,10,02,04,46,6.30
2017,10,02,04,47,6.40
2017,10,02,04,48,6.50
2017,10,02,04,49,6.60
2017,10,02,04,50,6.70
2017,10,02,04,51,6.80
2017,10,02,04,52,6.80
2017,10,02,04,53,6.80
2017,10,02,04,54,6.80
2017,10,02,04,55,6.90
2017,10,02,04,56,6.80
2017,10,02,04,57,6.80
2017,10,02,04,58,6.80
2017,10,02,04,59,6.80
2017,10,02,05,00,6.80
2017,10,02,05,01,6.80
2017,10,02,05,02,6.70
2017,10,02,05,03,6.70
2017,10,02,05,04,6.70
2017,10,02,05,05,6.70
2017,10,02,05,06,6.70
2017,10,02,05,07,6.70
2017,10,02,05,08,6.70
2017,10,02,05,09,6.70
2017,10,02,05,10,6.70
2017,10,02,05,11,6.70
2017,10,02,05,12,6.70
2017,10,02,05,13,6.70
2017,10,02,05,14,6.70
2017,10,02,05,15,6.70
2017,10,02,05,16,6.70
2017,10,02,05,17,6.70
2017,10,02,05,18,6.70
2017,10,02,05,19,6.80
2017,10,02,05,20,6.80
2017,10,02,05,21,6.80
2017,10,02,05,22,6.80
2017,10,02,05,23,6.80
2017,10,02,05,24,6.80
2017,10,02,05,25,6.80
2017,10,02,05,26,6.80
2017,10,02,05,27,6.90
2017,10,02,05,28,6.90
2017,10,02,05,29,6.90
2017,10,02,05,30,7.00
2017,10,02,05,31,7.00
2017,10,02,05,32,7.10
2017,10,02,05,33,7.10
2017,10,02,05,34,7.10
2017,10,02,05,35,7.20
2017,10,02,05,36,7.20
2017,10,02,05,37,7.20
2017,10,02,05,38,7.20
2017,10,02,05,39,7.30
2017,10,02,05,40,7.30
2017,10,02,05,41,7.30
2017,10,02,05,42,7.30
2017,10,02,05,43,7.30
2017,10,02,05,44,7.30
2017,10,02,05,45,7.30
2017,10,02,05,46,7.30
2017,10,02,05,47,7.30
2017,10,02,05,48,7.40
2017,10,02,05,49,7.50
2017,10,02,05,50,7.50
2017,10,02,05,51,7.60
2017,10,02,05,52,7.70
2017,10,02,05,53,7.70
2017,10,02,05,54,7.70
2017,10,02,05,55,7.80
2017,10,02,05,56,7.80
2017,10,02,05,57,7.80
2017,10,02,05,58,7.80
2017,10,02,05,59,7.90
2017,10,02,06,00,7.90
2017,10,02,06,01,7.90
2017,10,02,06,02,8.00
2017,10,02,06,03,8.00
2017,10,02,06,04,8.10
2017,10,02,06,05,8.10
2017,10,02,06,06,8.20
2017,10,02,06,07,8.20
2017,10,02,06,08,8.20
2017,10,02,06,09,8.30
2017,10,02,06,10,8.30
2017,10,02,06,11,8.40
2017,10,02,06,12,8.50
2017,10,02,06,13,8.50
2017,10,02,06,14,8.60
2017,10,02,06,15,8.70
2017,10,02,06,16,8.70
2017,10,02,06,17,8.80
2017,10,02,06,18,8.80
2017,10,02,06,19,8.90
2017,10,02,06,20,8.90
2017,10,02,06,21,9.00
2017,10,02,06,22,9.10
2017,10,02,06,23,9.20
2017,10,02,06,24,9.20
2017,10,02,06,25,9.30
2017,10,02,06,26,9.40
2017,10,02,06,27,9.40
2017,10,02,06,28,9.50
2017,10,02,06,29,9.50
2017,10,02,06,30,9.60
2017,10,02,06,31,9.70
2017,10,02,06,32,9.70
2017,10,02,06,33,9.80
2017,10,02,06,34,9.80
2017,10,02,06,35,9.90
2017,10,02,06,36,9.90
2017,10,02,06,37,9.90
2017,10,02,06,38,10.00
2017,10,02,06,39,10.00
2017,10,02,06,40,10.10
2017,10,02,06,41,10.10
2017,10,02,06,42,10.10
2017,10,02,06,43,10.10
2017,10,02,06,44,10.10
2017,10,02,06,45,10.20
2017,10,02,06,46,10.30
2017,10,02,06,47,10.30
2017,10,02,06,48,10.40
2017,10,02,06,49,10.40
2017,10,02,06,50,10.50
2017,10,02,06,51,10.50
2017,10,02,06,52,10.60
2017,10,02,06,53,10.60
2017,10,02,06,54,10.60
2017,10,02,06,55,10.60
2017,10,02,06,56,10.60
2017,10,02,06,57,10.60
2017,10,02,06,58,10.60
2017,10,02,06,59,10.60
2017,10,02,07,00,10.70
2017,10,02,07,01,10.70
2017,10,02,07,02,10.70
2017,10,02,07,03,10.70
2017,10,02,07,04,10.70
2017,10,02,07,05,10.70
2017,10,02,07,06,10.80
2017,10,02,07,07,10.80
2017,10,02,07,08,10.80
2017,10,02,07,09,10.80
2017,10,02,07,10,10.80
2017,10,02,07,11,10.80
2017,10,02,07,12,10.80
2017,10,02,07,13,10.80
2017,10,02,07,14,10.80
2017,10,02,07,15,10.90
2017,10,02,07,16,10.90
2017,10,02,07,17,10.90
2017,10,02,07,18,10.90
2017,10,02,07,19,10.90
2017,10,02,07,20,10.90
2017,10,02,07,21,10.90
2017,10,02,07,22,10.90
2017,10,02,07,23,10.90
2017,10,02,07,24,10.90
2017,10,02,07,25,10.90
2017,10,02,07,26,10.90
2017,10,02,07,27,10.90
2017,10,02,07,28,10.90
2017,10,02,07,29,10.90
2017,10,02,07,30,10.90
2017,10,02,07,31,10.80
2017,10,02,07,32,10.80
2017,10,02,07,33,10.80
2017,10,02,07,34,10.80
2017,10,02,07,35,10.80
2017,10,02,07,36,10.80
2017,10,02,07,37,10.80
2017,10,02,07,38,10.80
2017,10,02,07,39,10.80
2017,10,02,07,40,10.80
2017,10,02,07,41,10.80
2017,10,02,07,42,10.90
2017,10,02,07,43,10.90
2017,10,02,07,44,10.90
2017,10,02,07,45,10.90
2017,10,02,07,46,10.90
2017,10,02,07,47,10.90
2017,10,02,07,48,10.90
2017,10,02,07,49,10.90
2017,10,02,07,50,10.90
2017,10,02,07,51,11.00
2017,10,02,07,52,11.00
2017,10,02,07,53,11.00
2017,10,02,07,54,11.10
2017,10,02,07,55,11.10
2017,10,02,07,56,11.10
2017,10,02,07,57,11.10
2017,10,02,07,58,11.10
2017,10,02,07,59,11.20
2017,10,02,08,00,11.20
2017,10,02,08,01,11.20
2017,10,02,08,02,11.30
2017,10,02,08,03,11.30
2017,10,02,08,04,11.30
2017,10,02,08,05,11.30
2017,10,02,08,06,11.40
2017,10,02,08,07,11.40
2017,10,02,08,08,11.40
2017,10,02,08,09,11.40
2017,10,02,08,10,11.50
2017,10,02,08,11,11.50
2017,10,02,08,12,11.60
2017,10,02,08,13,11.60
2017,10,02,08,14,11.60
2017,10,02,08,15,11.60
2017,10,02,08,16,11.70
2017,10,02,08,17,11.70
2017,10,02,08,18,11.80
2017,10,02,08,19,11.80
2017,10,02,08,20,11.80
2017,10,02,08,21,11.80
2017,10,02,08,22,11.90
2017,10,02,08,23,11.90
2017,10,02,08,24,11.90
2017,10,02,08,25,12.00
2017,10,02,08,26,12.00
2017,10,02,08,27,12.00
2017,10,02,08,28,12.10
2017,10,02,08,29,12.10
2017,10,02,08,30,12.10
2017,10,02,08,31,12.10
2017,10,02,08,32,12.10
2017,10,02,08,33,12.20
2017,10,02,08,34,12.20
2017,10,02,08,35,12.20
2017,10,02,08,36,12.20
2017,10,02,08,37,12.20
2017,10,02,08,38,12.30
2017,10,02,08,39,12.30
2017,10,02,08,40,12.30
2017,10,02,08,41,12.30
2017,10,02,08,42,12.30
2017,10,02,08,43,12.40
2017,10,02,08,44,12.40
2017,10,02,08,45,12.40
2017,10,02,08,46,12.50
2017,10,02,08,47,12.50
2017,10,02,08,48,12.50
2017,10,02,08,49,12.60
2017,10,02,08,50,12.60
2017,10,02,08,51,12.60
2017,10,02,08,52,12.70
2017,10,02,08,53,12.70
2017,10,02,08,54,12.70
2017,10,02,08,55,12.70
2017,10,02,08,56,12.70
2017,10,02,08,57,12.70
2017,10,02,08,58,12.70
2017,10,02,08,59,12.70
2017,10,02,09,00,12.70
2017,10,02,09,01,12.80
2017,10,02,09,02,12.80
2017,10,02,09,03,12.80
2017,10,02,09,04,12.80
2017,10,02,09,05,12.80
2017,10,02,09,06,12.80
2017,10,02,09,07,12.80
2017,10,02,09,08,12.90
2017,10,02,09,09,12.90
2017,10,02,09,10,12.90
2017,10,02,09,11,12.90
2017,10,02,09,12,12.90
2017,10,02,09,13,12.90
2017,10,02,09,14,13.00
2017,10,02,09,15,13.00
2017,10,02,09,16,13.00
2017,10,02,09,17,12.90
2017,10,02,09,18,12.90
2017,10,02,09,19,12.90
2017,10,02,09,20,13.00
2017,10,02,09,21,13.00
2017,10,02,09,22,13.00
2017,10,02,09,23,13.10
2017,10,02,09,24,13.10
2017,10,02,09,25,13.20
2017,10,02,09,26,13.20
2017,10,02,09,27,13.20
2017,10,02,09,28,13.20
2017,10,02,09,29,13.20
2017,10,02,09,30,13.30
2017,10,02,09,31,13.30
2017,10,02,09,32,13.30
2017,10,02,09,33,13.30
2017,10,02,09,34,13.30
2017,10,02,09,35,13.30
2017,10,02,09,36,13.30
2017,10,02,09,37,13.40
2017,10,02,09,38,13.30
2017,10,02,09,39,13.30
2017,10,02,09,40,13.40
2017,10,02,09,41,13.40
2017,10,02,09,42,13.40
2017,10,02,09,43,13.40
2017,10,02,09,44,13.40
2017,10,02,09,45,13.40
2017,10,02,09,46,13.50
2017,10,02,09,47,13.50
2017,10,02,09,48,13.60
2017,10,02,09,49,13.60
2017,10,02,09,50,13.60
2017,10,02,09,51,13.70
2017,10,02,09,52,13.80
2017,10,02,09,53,13.90
2017,10,02,09,54,13.90
2017,10,02,09,55,13.90
2017,10,02,09,56,13.90
2017,10,02,09,57,13.90
2017,10,02,09,58,13.90
2017,10,02,09,59,13.90
2017,10,02,10,00,14.00
2017,10,02,10,01,14.00
2017,10,02,10,02,14.00
2017,10,02,10,03,14.00
2017,10,02,10,04,14.00
2017,10,02,10,05,14.10
2017,10,02,10,06,14.10
2017,10,02,10,07,14.10
2017,10,02,10,08,14.10
2017,10,02,10,09,14.10
2017,10,02,10,10,14.10
2017,10,02,10,11,14.10
2017,10,02,10,12,14.10
2017,10,02,10,13,14.10
2017,10,02,10,14,14.10
2017,10,02,10,15,14.20
2017,10,02,10,16,14.20
2017,10,02,10,17,14.20
2017,10,02,10,18,14.20
2017,10,02,10,19,14.30
2017,10,02,10,20,14.30
2017,10,02,10,21,14.40
2017,10,02,10,22,14.40
2017,10,02,10,23,14.50
2017,10,02,10,24,14.50
2017,10,02,10,25,14.50
2017,10,02,10,26,14.50
2017,10,02,10,27,14.60
2017,10,02,10,28,14.60
2017,10,02,10,29,14.60
2017,10,02,10,30,14.60
2017,10,02,10,31,14.70
2017,10,02,10,32,14.70
2017,10,02,10,33,14.80
2017,10,02,10,34,14.90
2017,10,02,10,35,15.00
2017,10,02,10,36,15.10
2017,10,02,10,37,15.10
2017,10,02,10,38,15.20
2017,10,02,10,39,15.20
2017,10,02,10,40,15.20
2017,10,02,10,41,15.20
2017,10,02,10,42,15.20
2017,10,02,10,43,15.20
2017,10,02,10,44,15.20
2017,10,02,10,45,15.20
2017,10,02,10,46,15.20
2017,10,02,10,47,15.10
2017,10,02,10,48,15.10
2017,10,02,10,49,15.10
2017,10,02,10,50,15.20
2017,10,02,10,51,15.20
2017,10,02,10,52,15.30
2017,10,02,10,53,15.40
2017,10,02,10,54,15.40
2017,10,02,10,55,15.50
2017,10,02,10,56,15.60
2017,10,02,10,57,15.60
2017,10,02,10,58,15.60
2017,10,02,10,59,15.70
2017,10,02,11,00,15.70
2017,10,02,11,01,15.70
2017,10,02,11,02,15.80
2017,10,02,11,03,15.80
2017,10,02,11,04,15.80
2017,10,02,11,05,15.80
2017,10,02,11,06,15.80
2017,10,02,11,07,15.80
2017,10,02,11,08,15.80
2017,10,02,11,09,15.80
2017,10,02,11,10,15.80
2017,10,02,11,11,15.80
2017,10,02,11,12,15.80
2017,10,02,11,13,15.90
2017,10,02,11,14,15.90
2017,10,02,11,15,16.00
2017,10,02,11,16,16.00
2017,10,02,11,17,16.10
2017,10,02,11,18,16.20
2017,10,02,11,19,16.20
2017,10,02,11,20,16.20
2017,10,02,11,21,16.20
2017,10,02,11,22,16.20
2017,10,02,11,23,16.20
2017,10,02,11,24,16.20
2017,10,02,11,25,16.10
2017,10,02,11,26,16.10
2017,10,02,11,27,16.10
2017,10,02,11,28,16.10
2017,10,02,11,29,16.10
2017,10,02,11,30,16.10
2017,10,02,11,31,16.10
2017,10,02,11,32,16.10
2017,10,02,11,33,16.10
2017,10,02,11,34,16.10
2017,10,02,11,35,16.20
2017,10,02,11,36,16.20
2017,10,02,11,37,16.20
2017,10,02,11,38,16.20
2017,10,02,11,39,16.20
2017,10,02,11,40,16.10
2017,10,02,11,41,15.90
2017,10,02,11,42,15.80
2017,10,02,11,43,15.60
2017,10,02,11,44,15.50
2017,10,02,11,45,15.40
2017,10,02,11,46,15.30
2017,10,02,11,47,15.20
2017,10,02,11,48,15.20
2017,10,02,11,49,15.20
2017,10,02,11,50,15.20
2017,10,02,11,51,15.00
2017,10,02,11,52,14.80
2017,10,02,11,53,14.70
2017,10,02,11,54,14.60
2017,10,02,11,55,14.60
2017,10,02,11,56,14.70
2017,10,02,11,57,14.70
2017,10,02,11,58,14.70
2017,10,02,11,59,14.70
2017,10,02,12,00,14.70
2017,10,02,12,01,14.70
2017,10,02,12,02,14.80
2017,10,02,12,03,14.80
2017,10,02,12,04,14.90
2017,10,02,12,05,14.90
2017,10,02,12,06,15.10
2017,10,02,12,07,15.10
2017,10,02,12,08,15.20
2017,10,02,12,09,15.30
2017,10,02,12,10,15.30
2017,10,02,12,11,15.50
2017,10,02,12,12,15.60
2017,10,02,12,13,15.80
2017,10,02,12,14,15.90
2017,10,02,12,15,16.10
2017,10,02,12,16,16.20
2017,10,02,12,17,16.30
2017,10,02,12,18,16.30
2017,10,02,12,19,16.30
2017,10,02,12,20,16.30
2017,10,02,12,21,16.30
2017,10,02,12,22,16.40
2017,10,02,12,23,16.40
2017,10,02,12,24,16.50
2017,10,02,12,25,16.60
2017,10,02,12,26,16.60
2017,10,02,12,27,16.70
2017,10,02,12,28,16.80
2017,10,02,12,29,16.90
2017,10,02,12,30,17.00
2017,10,02,12,31,17.10
2017,10,02,12,32,17.10
2017,10,02,12,33,17.20
2017,10,02,12,34,17.10
2017,10,02,12,35,17.10
2017,10,02,12,36,17.00
2017,10,02,12,37,17.00
2017,10,02,12,38,16.90
2017,10,02,12,39,16.90
2017,10,02,12,40,16.80
2017,10,02,12,41,16.80
2017,10,02,12,42,16.80
2017,10,02,12,43,16.80
2017,10,02,12,44,16.90
2017,10,02,12,45,16.90
2017,10,02,12,46,16.90
2017,10,02,12,47,16.90
2017,10,02,12,48,16.90
2017,10,02,12,49,16.90
2017,10,02,12,50,16.90
2017,10,02,12,51,16.90
2017,10,02,12,52,16.90
2017,10,02,12,53,16.90
2017,10,02,12,54,16.90
2017,10,02,12,55,16.90
2017,10,02,12,56,16.90
2017,10,02,12,57,17.00
2017,10,02,12,58,17.00
2017,10,02,12,59,17.00
2017,10,02,13,00,17.00
2017,10,02,13,01,16.90
2017,10,02,13,02,16.90
2017,10,02,13,03,17.00
2017,10,02,13,04,17.00
2017,10,02,13,05,17.10
2017,10,02,13,06,17.10
2017,10,02,13,07,17.00
2017,10,02,13,08,17.00
2017,10,02,13,09,16.90
2017,10,02,13,10,16.90
2017,10,02,13,11,16.80
2017,10,02,13,12,16.80
2017,10,02,13,13,16.80
2017,10,02,13,14,16.80
2017,10,02,13,15,16.90
2017,10,02,13,16,17.00
2017,10,02,13,17,17.00
2017,10,02,13,18,17.10
2017,10,02,13,19,17.10
2017,10,02,13,20,17.10
2017,10,02,13,21,17.10
2017,10,02,13,22,17.10
2017,10,02,13,23,17.10
2017,10,02,13,24,17.10
2017,10,02,13,25,17.20
2017,10,02,13,26,17.20
2017,10,02,13,27,17.20
2017,10,02,13,28,17.20
2017,10,02,13,29,17.20
2017,10,02,13,30,17.20
2017,10,02,13,31,17.20
2017,10,02,13,32,17.20
2017,10,02,13,33,17.20
2017,10,02,13,34,17.20
2017,10,02,13,35,17.30
2017,10,02,13,36,17.30
2017,10,02,13,37,17.30
2017,10,02,13,38,17.30
2017,10,02,13,39,17.40
2017,10,02,13,40,17.40
2017,10,02,13,41,17.50
2017,10,02,13,42,17.60
2017,10,02,13,43,17.60
2017,10,02,13,44,17.60
2017,10,02,13,45,17.60
2017,10,02,13,46,17.60
2017,10,02,13,47,17.60
2017,10,02,13,48,17.50
2017,10,02,13,49,17.50
2017,10,02,13,50,17.50
2017,10,02,13,51,17.50
2017,10,02,13,52,17.40
2017,10,02,13,53,17.30
2017,10,02,13,54,17.40
2017,10,02,13,55,17.40
2017,10,02,13,56,17.40
2017,10,02,13,57,17.50
2017,10,02,13,58,17.50
2017,10,02,13,59,17.60
2017,10,02,14,00,17.70
2017,10,02,14,01,17.70
2017,10,02,14,02,17.70
2017,10,02,14,03,17.70
2017,10,02,14,04,17.60
2017,10,02,14,05,17.60
2017,10,02,14,06,17.70
2017,10,02,14,07,17.70
2017,10,02,14,08,17.70
2017,10,02,14,09,17.70
2017,10,02,14,10,17.70
2017,10,02,14,11,17.60
2017,10,02,14,12,17.60
2017,10,02,14,13,17.60
2017,10,02,14,14,17.60
2017,10,02,14,15,17.60
2017,10,02,14,16,17.60
2017,10,02,14,17,17.60
2017,10,02,14,18,17.70
2017,10,02,14,19,17.70
2017,10,02,14,20,17.80
2017,10,02,14,21,17.80
2017,10,02,14,22,17.80
2017,10,02,14,23,17.70
2017,10,02,14,24,17.70
2017,10,02,14,25,17.70
2017,10,02,14,26,17.70
2017,10,02,14,27,17.70
2017,10,02,14,28,17.80
2017,10,02,14,29,17.80
2017,10,02,14,30,17.80
2017,10,02,14,31,17.80
2017,10,02,14,32,17.80
2017,10,02,14,33,17.80
2017,10,02,14,34,17.90
2017,10,02,14,35,17.90
2017,10,02,14,36,18.00
2017,10,02,14,37,18.00
2017,10,02,14,38,18.00
2017,10,02,14,39,18.00
2017,10,02,14,40,18.00
2017,10,02,14,41,18.10
2017,10,02,14,42,18.00
2017,10,02,14,43,18.00
2017,10,02,14,44,18.10
2017,10,02,14,45,18.10
2017,10,02,14,46,18.10
2017,10,02,14,47,18.10
2017,10,02,14,48,18.10
2017,10,02,14,49,18.20
2017,10,02,14,50,18.20
2017,10,02,14,51,18.20
2017,10,02,14,52,18.30
2017,10,02,14,53,18.30
2017,10,02,14,54,18.40
2017,10,02,14,55,18.40
2017,10,02,14,56,18.40
2017,10,02,14,57,18.40
2017,10,02,14,58,18.40
2017,10,02,14,59,18.30
2017,10,02,15,00,18.30
2017,10,02,15,01,18.20
2017,10,02,15,02,18.20
2017,10,02,15,03,18.20
2017,10,02,15,04,18.20
2017,10,02,15,05,18.20
2017,10,02,15,06,18.20
2017,10,02,15,07,18.20
2017,10,02,15,08,18.20
2017,10,02,15,09,18.20
2017,10,02,15,10,18.20
2017,10,02,15,11,18.30
2017,10,02,15,12,18.30
2017,10,02,15,13,18.30
2017,10,02,15,14,18.40
2017,10,02,15,15,18.40
2017,10,02,15,16,18.40
2017,10,02,15,17,18.50
2017,10,02,15,18,18.50
2017,10,02,15,19,18.60
2017,10,02,15,20,18.60
2017,10,02,15,21,18.60
2017,10,02,15,22,18.60
2017,10,02,15,23,18.60
2017,10,02,15,24,18.70
2017,10,02,15,25,18.70
2017,10,02,15,26,18.70
2017,10,02,15,27,18.70
2017,10,02,15,28,18.70
2017,10,02,15,29,18.70
2017,10,02,15,30,18.70
2017,10,02,15,31,18.70
2017,10,02,15,32,18.70
2017,10,02,15,33,18.70
2017,10,02,15,34,18.70
2017,10,02,15,35,18.70
2017,10,02,15,36,18.60
2017,10,02,15,37,18.60
2017,10,02,15,38,18.50
2017,10,02,15,39,18.50
2017,10,02,15,40,18.60
2017,10,02,15,41,18.60
2017,10,02,15,42,18.50
2017,10,02,15,43,18.40
2017,10,02,15,44,18.40
2017,10,02,15,45,18.40
2017,10,02,15,46,18.40
2017,10,02,15,47,18.30
2017,10,02,15,48,18.40
2017,10,02,15,49,18.40
2017,10,02,15,50,18.50
2017,10,02,15,51,18.50
2017,10,02,15,52,18.60
2017,10,02,15,53,18.60
2017,10,02,15,54,18.70
2017,10,02,15,55,18.70
2017,10,02,15,56,18.70
2017,10,02,15,57,18.70
2017,10,02,15,58,18.80
2017,10,02,15,59,18.80
2017,10,02,16,00,18.90
2017,10,02,16,01,19.00
2017,10,02,16,02,19.00
2017,10,02,16,03,19.00
2017,10,02,16,04,19.00
2017,10,02,16,05,19.00
2017,10,02,16,06,19.00
2017,10,02,16,07,19.00
2017,10,02,16,08,19.00
2017,10,02,16,09,19.00
2017,10,02,16,10,18.90
2017,10,02,16,11,18.90
2017,10,02,16,12,18.90
2017,10,02,16,13,18.80
2017,10,02,16,14,18.90
2017,10,02,16,15,18.90
2017,10,02,16,16,18.90
2017,10,02,16,17,18.90
2017,10,02,16,18,18.90
2017,10,02,16,19,18.90
2017,10,02,16,20,19.00
2017,10,02,16,21,19.00
2017,10,02,16,22,19.00
2017,10,02,16,23,19.00
2017,10,02,16,24,19.00
2017,10,02,16,25,19.00
2017,10,02,16,26,19.10
2017,10,02,16,27,19.10
2017,10,02,16,28,19.10
2017,10,02,16,29,19.20
2017,10,02,16,30,19.20
2017,10,02,16,31,19.20
2017,10,02,16,32,19.20
2017,10,02,16,33,19.10
2017,10,02,16,34,18.80
2017,10,02,16,35,18.50
2017,10,02,16,36,18.30
2017,10,02,16,37,18.00
2017,10,02,16,38,17.80
2017,10,02,16,39,17.70
2017,10,02,16,40,17.60
2017,10,02,16,41,17.50
2017,10,02,16,42,17.40
2017,10,02,16,43,17.30
2017,10,02,16,44,17.30
2017,10,02,16,45,17.30
2017,10,02,16,46,17.30
2017,10,02,16,47,17.30
2017,10,02,16,48,17.30
2017,10,02,16,49,17.30
2017,10,02,16,50,17.20
2017,10,02,16,51,17.20
2017,10,02,16,52,17.10
2017,10,02,16,53,17.10
2017,10,02,16,54,17.00
2017,10,02,16,55,16.90
2017,10,02,16,56,16.90
2017,10,02,16,57,16.90
2017,10,02,16,58,16.80
2017,10,02,16,59,16.70
2017,10,02,17,00,16.70
2017,10,02,17,01,16.70
2017,10,02,17,02,16.70
2017,10,02,17,03,16.70
2017,10,02,17,04,16.70
2017,10,02,17,05,16.70
2017,10,02,17,06,16.70
2017,10,02,17,07,16.70
2017,10,02,17,08,16.70
2017,10,02,17,09,16.70
2017,10,02,17,10,16.70
2017,10,02,17,11,16.60
2017,10,02,17,12,16.50
2017,10,02,17,13,16.50
2017,10,02,17,14,16.40
2017,10,02,17,15,16.40
2017,10,02,17,16,16.40
2017,10,02,17,17,16.50
2017,10,02,17,18,16.50
2017,10,02,17,19,16.60
2017,10,02,17,20,16.60
2017,10,02,17,21,16.70
2017,10,02,17,22,16.70
2017,10,02,17,23,16.70
2017,10,02,17,24,16.70
2017,10,02,17,25,16.70
2017,10,02,17,26,16.60
2017,10,02,17,27,16.50
2017,10,02,17,28,16.40
2017,10,02,17,29,16.30
2017,10,02,17,30,16.20
2017,10,02,17,31,16.20
2017,10,02,17,32,16.20
2017,10,02,17,33,16.20
2017,10,02,17,34,16.10
2017,10,02,17,35,16.10
2017,10,02,17,36,16.00